FLOCK 3P-31

Last updated on Wed Feb 14 2018 16:20:34 GMT+0000 (Greenwich Mean Time)

1 42049U 17008DF 18044.91706742 .00002592 00000-0 11017-3 0 9999 2 42049 97.4663 110.4470 0009685 72.0986 288.1306 15.23916180 53959
UTC large
Height (km)
Speed (km/s)
/
Latitude / Longitude
Inclination (degrees)
Orbital Period (minutes)
Azimuth
Elevation
Range (km)
Doppler Factor

Next 0 passes for location: London (51.5072 / 0.1276)

Sorry there are no passes over London.